Hourly Weather Ryabinovka

Today, 22 April, Thursday

Time Temperature Precipitation Wind Pressure Humidity
00:00 +4°C° 0 mm 3 mps 750 mmHg 90%
01:00 +4°C° 0 mm 3 mps 750 mmHg 91%
02:00 +5°C° 0 mm 2 mps 751 mmHg 91%
03:00 +5°C° 0 mm 2 mps 751 mmHg 92%
04:00 +5°C° 0 mm 2 mps 751 mmHg 92%
05:00 +4°C° 0 mm 2 mps 751 mmHg 93%
06:00 +4°C° 0 mm 2 mps 752 mmHg 93%
07:00 +4°C° 0 mm 3 mps 752 mmHg 87%
08:00 +6°C° 0 mm 4 mps 753 mmHg 81%
09:00 +7°C° 0 mm 4 mps 753 mmHg 75%
10:00 +8°C° 0 mm 5 mps 753 mmHg 70%
11:00 +9°C° 0 mm 5 mps 753 mmHg 65%
12:00 +10°C° 0 mm 5 mps 754 mmHg 60%
13:00 +10°C° 0 mm 5 mps 753 mmHg 62%
14:00 +10°C° 0 mm 5 mps 753 mmHg 65%
15:00 +11°C° 0 mm 4 mps 753 mmHg 67%
16:00 +11°C° 0 mm 4 mps 753 mmHg 67%
17:00 +12°C° 0 mm 4 mps 753 mmHg 67%
18:00 +12°C° 0 mm 4 mps 753 mmHg 67%
19:00 +11°C° 0 mm 4 mps 753 mmHg 73%
20:00 +10°C° 0 mm 4 mps 754 mmHg 78%
21:00 +7°C° 0 mm 4 mps 754 mmHg 83%
22:00 +7°C° 0 mm 4 mps 754 mmHg 83%
23:00 +7°C° 0 mm 4 mps 754 mmHg 83%

Tomorrow, 23 April, Friday

Time Temperature Precipitation Wind Pressure Humidity
00:00 +7°C° 0 mm 4 mps 753 mmHg 83%
01:00 +6°C° 0 mm 4 mps 753 mmHg 83%
02:00 +6°C° 0 mm 4 mps 753 mmHg 84%
03:00 +6°C° 0 mm 4 mps 753 mmHg 84%
04:00 +6°C° 0 mm 4 mps 753 mmHg 82%
05:00 +7°C° 0 mm 4 mps 753 mmHg 81%
06:00 +7°C° 0 mm 4 mps 753 mmHg 79%
07:00 +8°C° 0 mm 4 mps 754 mmHg 74%
08:00 +10°C° 0 mm 5 mps 754 mmHg 70%
09:00 +12°C° 0 mm 5 mps 754 mmHg 65%
10:00 +13°C° 0 mm 5 mps 753 mmHg 58%
11:00 +15°C° 0 mm 6 mps 753 mmHg 52%
12:00 +16°C° 0 mm 6 mps 753 mmHg 45%
13:00 +16°C° 0 mm 6 mps 753 mmHg 46%
14:00 +16°C° 0 mm 6 mps 752 mmHg 47%
15:00 +16°C° 0 mm 6 mps 752 mmHg 48%
16:00 +15°C° 0 mm 5 mps 752 mmHg 51%
17:00 +15°C° 0 mm 5 mps 751 mmHg 54%
18:00 +14°C° 0 mm 5 mps 751 mmHg 57%
19:00 +13°C° 0 mm 5 mps 751 mmHg 62%
20:00 +12°C° 0 mm 5 mps 751 mmHg 68%
21:00 +9°C° 0 mm 5 mps 750 mmHg 73%
22:00 +9°C° 0 mm 5 mps 750 mmHg 74%
23:00 +9°C° 0 mm 5 mps 749 mmHg 74%

Day after tomorrow, 24 April, Saturday

Time Temperature Precipitation Wind Pressure Humidity
00:00 +9°C° 0 mm 6 mps 749 mmHg 75%
01:00 +8°C° 0 mm 6 mps 748 mmHg 78%
02:00 +8°C° 0 mm 5 mps 747 mmHg 81%
03:00 +8°C° 0 mm 5 mps 747 mmHg 84%
04:00 +7°C° 0 mm 5 mps 746 mmHg 84%
05:00 +7°C° 0 mm 5 mps 746 mmHg 85%
06:00 +7°C° 0 mm 5 mps 746 mmHg 86%
07:00 +6°C° 0.3 mm 5 mps 746 mmHg 89%
08:00 +4°C° 0.3 mm 4 mps 747 mmHg 92%
09:00 +3°C° 0.3 mm 3 mps 747 mmHg 94%
10:00 +4°C° 0.8 mm 3 mps 747 mmHg 92%
11:00 +4°C° 0.8 mm 3 mps 747 mmHg 89%
12:00 +5°C° 0.8 mm 3 mps 747 mmHg 86%
13:00 +6°C° 0.2 mm 4 mps 747 mmHg 79%
14:00 +7°C° 0.2 mm 4 mps 747 mmHg 71%
15:00 +8°C° 0.2 mm 4 mps 746 mmHg 64%
16:00 +8°C° 0.2 mm 4 mps 746 mmHg 62%
17:00 +8°C° 0.2 mm 4 mps 746 mmHg 60%
18:00 +8°C° 0.2 mm 4 mps 746 mmHg 57%
19:00 +7°C° 0 mm 3 mps 746 mmHg 62%
20:00 +5°C° 0 mm 3 mps 747 mmHg 68%
21:00 +4°C° 0 mm 3 mps 747 mmHg 73%
22:00 +3°C° 0 mm 3 mps 747 mmHg 75%
23:00 +3°C° 0 mm 3 mps 747 mmHg 78%

25 April, Sunday

Time Temperature Precipitation Wind Pressure Humidity
00:00 +2°C° 0 mm 3 mps 747 mmHg 80%
01:00 +2°C° 0 mm 3 mps 747 mmHg 82%
02:00 +2°C° 0 mm 3 mps 747 mmHg 84%
03:00 0°C° 0 mm 4 mps 747 mmHg 85%
04:00 0°C° 0 mm 4 mps 748 mmHg 85%
05:00 0°C° 0 mm 4 mps 748 mmHg 85%
06:00 0°C° 0 mm 4 mps 748 mmHg 85%
07:00 +1°C° 0 mm 5 mps 748 mmHg 79%
08:00 +2°C° 0 mm 5 mps 748 mmHg 73%
09:00 +4°C° 0 mm 6 mps 748 mmHg 67%
10:00 +4°C° 0.3 mm 6 mps 748 mmHg 63%
11:00 +5°C° 0.3 mm 7 mps 748 mmHg 59%
12:00 +5°C° 0.3 mm 7 mps 749 mmHg 56%
13:00 +6°C° 0.1 mm 7 mps 749 mmHg 52%
14:00 +6°C° 0.1 mm 7 mps 749 mmHg 48%
15:00 +6°C° 0.1 mm 7 mps 749 mmHg 44%
16:00 +6°C° 0.1 mm 7 mps 749 mmHg 49%
17:00 +5°C° 0.1 mm 6 mps 749 mmHg 53%
18:00 +6°C° 0.1 mm 5 mps 749 mmHg 58%
19:00 +4°C° 0 mm 4 mps 749 mmHg 62%
20:00 +3°C° 0 mm 4 mps 749 mmHg 65%
21:00 +2°C° 0 mm 3 mps 750 mmHg 69%
22:00 +2°C° 0 mm 3 mps 750 mmHg 72%
23:00 +1°C° 0 mm 3 mps 750 mmHg 76%

26 April, Monday

Time Temperature Precipitation Wind Pressure Humidity
00:00 +1°C° 0 mm 3 mps 750 mmHg 79%
01:00 +1°C° 0 mm 3 mps 750 mmHg 81%
02:00 0°C° 0 mm 3 mps 749 mmHg 83%
03:00 0°C° 0 mm 3 mps 749 mmHg 85%
04:00 0°C° 0 mm 3 mps 749 mmHg 85%
05:00 0°C° 0 mm 3 mps 749 mmHg 85%
06:00 0°C° 0 mm 3 mps 750 mmHg 85%
07:00 +1°C° 0 mm 3 mps 749 mmHg 77%
08:00 +3°C° 0 mm 4 mps 749 mmHg 70%
09:00 +3°C° 0 mm 5 mps 749 mmHg 63%
10:00 +5°C° 0.2 mm 5 mps 749 mmHg 59%
11:00 +6°C° 0.2 mm 5 mps 749 mmHg 54%
12:00 +7°C° 0.2 mm 6 mps 749 mmHg 50%
13:00 +7°C° 0 mm 6 mps 749 mmHg 48%
14:00 +7°C° 0 mm 6 mps 748 mmHg 46%
15:00 +7°C° 0 mm 6 mps 748 mmHg 44%
16:00 +7°C° 0.1 mm 5 mps 748 mmHg 48%
17:00 +7°C° 0.1 mm 5 mps 748 mmHg 53%
18:00 +6°C° 0.1 mm 4 mps 748 mmHg 57%
19:00 +5°C° 0.1 mm 4 mps 748 mmHg 64%
20:00 +4°C° 0.1 mm 3 mps 748 mmHg 70%
21:00 +3°C° 0.1 mm 3 mps 748 mmHg 77%
22:00 +3°C° 0.1 mm 3 mps 748 mmHg 78%
23:00 +2°C° 0.1 mm 3 mps 748 mmHg 78%

27 April, Tuesday

Time Temperature Precipitation Wind Pressure Humidity
00:00 +2°C° 0.1 mm 3 mps 748 mmHg 79%
01:00 +1°C° 0 mm 3 mps 749 mmHg 81%
02:00 0°C° 0 mm 3 mps 749 mmHg 84%
03:00 0°C° 0 mm 3 mps 749 mmHg 87%
04:00 0°C° 0 mm 3 mps 749 mmHg 86%
05:00 0°C° 0 mm 3 mps 750 mmHg 84%
06:00 0°C° 0 mm 3 mps 750 mmHg 83%
07:00 0°C° 0 mm 4 mps 750 mmHg 75%
08:00 +1°C° 0 mm 4 mps 750 mmHg 68%
09:00 +3°C° 0 mm 5 mps 750 mmHg 60%
10:00 +5°C° 0.1 mm 5 mps 750 mmHg 56%
11:00 +5°C° 0.1 mm 6 mps 750 mmHg 52%
12:00 +7°C° 0.1 mm 6 mps 750 mmHg 48%
13:00 +7°C° 0.3 mm 6 mps 750 mmHg 51%
14:00 +6°C° 0.3 mm 7 mps 750 mmHg 54%
15:00 +6°C° 0.3 mm 7 mps 750 mmHg 56%
16:00 +5°C° 0.2 mm 7 mps 750 mmHg 61%
17:00 +5°C° 0.2 mm 6 mps 750 mmHg 66%
18:00 +6°C° 0.2 mm 5 mps 751 mmHg 71%
19:00 +5°C° 0 mm 5 mps 751 mmHg 76%
20:00 +4°C° 0 mm 4 mps 751 mmHg 81%
21:00 +3°C° 0 mm 3 mps 752 mmHg 86%
22:00 +2°C° 0 mm 3 mps 752 mmHg 88%
23:00 +2°C° 0 mm 3 mps 752 mmHg 90%
Show more